EW2244 Weather Reports


Display with metric or nautical units.
time (UTC)temp
F
wind
direction
speed
MPH
gust
MPH
rain 1hr
in
rain 24hr
in
rain mn
in
humidity
%
barometer
mb
20260905034127 72 60 0.0 5.0 0.00 0.00 0.00 70 1017.3
20260905033132 72 173 0.0 3.0 0.00 0.00 0.00 70 1017.3
20260905032119 72 223 1.0 5.0 0.00 0.00 0.00 71 1017.3
20260905031122 72 229 0.0 1.0 0.00 0.00 0.00 72 1017.5
20260905030127 72 229 0.0 3.0 0.00 0.00 0.00 70 1017.4
20260905025151 72 253 1.0 5.0 0.00 0.00 0.00 70 1017.6
20260905024134 72 40 0.0 3.0 0.00 0.00 0.00 70 1017.6
20260905023122 72 40 0.0 1.0 0.00 0.00 0.00 70 1017.6
20260905022127 73 40 1.0 5.0 0.00 0.00 0.00 69 1017.7
20260905021131 72 229 1.0 3.0 0.00 0.00 0.00 70 1017.6
20260905020135 72 201 1.0 5.0 0.00 0.00 0.00 71 1017.5
20260905015121 73 244 1.0 5.0 0.00 0.00 0.00 71 1017.6
20260905014123 73 306 0.0 6.0 0.00 0.00 0.00 70 1017.7
20260905013148 73 44 0.0 4.0 0.00 0.00 0.00 69 1017.8
20260905012131 74 41 1.0 5.0 0.00 0.00 0.00 67 1017.8
20260905011120 74 112 1.0 6.0 0.00 0.00 0.00 67 1017.8
20260905010124 74 188 1.0 3.0 0.00 0.00 0.00 67 1017.8
20260905005148 74 304 0.0 3.0 0.00 0.00 0.00 68 1017.9
20260905004150 74 229 0.0 2.0 0.00 0.00 0.00 67 1017.9
20260905003153 74 237 1.0 6.0 0.00 0.00 0.00 67 1018.0
20260905002140 74 250 1.0 3.0 0.00 0.00 0.00 68 1018.1
20260905001142 74 19 0.0 4.0 0.00 0.00 0.00 67 1018.0
20260905000126 74 59 0.0 6.0 0.00 0.00 0.00 68 1018.3
20260904235129 74 37 0.0 2.0 0.00 0.00 0.00 68 1018.4
20260904234133 74 296 1.0 4.0 0.00 0.00 0.00 69 1018.3
20260904233122 74 74 0.0 8.0 0.00 0.00 0.00 69 1018.3
20260904232125 74 342 1.0 5.0 0.00 0.00 0.00 70 1018.5
20260904231129 74 289 1.0 4.0 0.00 0.00 0.00 69 1018.5
20260904230132 75 338 1.0 6.0 0.00 0.00 0.00 68 1018.5
20260904225119 75 44 1.0 10.0 0.00 0.00 0.00 67 1018.4
20260904224123 75 63 1.0 5.0 0.00 0.00 0.00 67 1018.5
20260904223127 75 336 1.0 8.0 0.00 0.00 0.00 66 1018.5
20260904222127 75 46 1.0 8.0 0.00 0.00 0.00 66 1018.5
20260904221134 75 9 1.0 6.0 0.00 0.00 0.00 67 1018.5
20260904220154 74 266 1.0 3.0 0.00 0.00 0.00 69 1018.6
20260904215133 74 273 1.0 4.0 0.00 0.00 0.00 70 1018.6
20260904214134 74 238 0.0 1.0 0.00 0.00 0.00 71 1018.6
20260904213121 74 238 0.0 2.0 0.00 0.00 0.00 70 1018.7
20260904212142 74 238 0.0 3.0 0.00 0.00 0.00 69 1018.8
20260904211123 74 238 1.0 2.0 0.00 0.00 0.00 69 1018.9
20260904210126 74 238 0.0 3.0 0.00 0.00 0.00 70 1019.0
20260904205127 75 238 1.0 2.0 0.00 0.00 0.00 68 1019.0
20260904204134 76 238 0.0 2.0 0.00 0.00 0.00 66 1019.1
20260904203132 77 238 0.0 3.0 0.00 0.00 0.00 64 1019.1
20260904202133 77 238 1.0 3.0 0.00 0.00 0.00 63 1019.0
20260904201137 77 235 1.0 3.0 0.00 0.00 0.00 64 1019.0
20260904200123 77 236 0.0 3.0 0.00 0.00 0.00 64 1019.0
20260904195146 77 240 1.0 2.0 0.00 0.00 0.00 63 1019.0
20260904194128 78 245 1.0 4.0 0.00 0.00 0.00 63 1019.0
20260904193151 78 274 1.0 4.0 0.00 0.00 0.00 63 1018.9
20260904192133 78 100 0.0 3.0 0.00 0.00 0.00 63 1018.9
20260904191121 78 90 1.0 3.0 0.00 0.00 0.00 62 1018.7
20260904190123 78 91 1.0 3.0 0.00 0.00 0.00 63 1018.7
20260904185127 79 91 1.0 2.0 0.00 0.00 0.00 63 1018.7
20260904184123 79 91 0.0 2.0 0.00 0.00 0.00 63 1018.6
20260904183131 78 91 0.0 3.0 0.00 0.00 0.00 62 1018.5
20260904182133 78 103 0.0 2.0 0.00 0.00 0.00 63 1018.5
20260904181156 78 186 0.0 1.0 0.00 0.00 0.00 66 1018.5
20260904180137 78 186 0.0 1.0 0.00 0.00 0.00 65 1018.4
20260904175124 79 186 0.0 2.0 0.00 0.00 0.00 64 1018.3
20260904174127 80 186 0.0 1.0 0.00 0.00 0.00 63 1018.3
20260904173131 81 186 0.0 2.0 0.00 0.00 0.00 61 1018.3
20260904172131 83 186 0.0 1.0 0.00 0.00 0.00 59 1018.3
20260904171155 84 186 0.0 2.0 0.00 0.00 0.00 55 1018.3
20260904170121 85 186 0.0 2.0 0.00 0.00 0.00 54 1018.3
20260904165126 86 186 0.0 1.0 0.00 0.00 0.00 52 1018.2
20260904164128 87 186 0.0 2.0 0.00 0.00 0.00 51 1018.4
20260904163131 88 185 0.0 1.0 0.00 0.00 0.00 44 1018.4
20260904162139 89 186 0.0 2.0 0.00 0.00 0.00 44 1018.5
20260904161142 89 186 1.0 4.0 0.00 0.00 0.00 42 1018.5
20260904160143 88 229 0.0 3.0 0.00 0.00 0.00 44 1018.6
20260904155124 88 88 1.0 2.0 0.00 0.00 0.00 45 1018.6
20260904154131 88 88 1.0 2.0 0.00 0.00 0.00 45 1018.7
20260904153136 88 88 0.0 2.0 0.00 0.00 0.00 46 1018.8
20260904152139 88 88 0.0 4.0 0.00 0.00 0.00 45 1018.8
20260904151122 88 92 1.0 4.0 0.00 0.00 0.00 43 1018.9
20260904150145 88 126 1.0 4.0 0.00 0.00 0.00 45 1018.9
20260904145152 88 100 2.0 3.0 0.00 0.00 0.00 43 1018.9
20260904144155 88 105 0.0 3.0 0.00 0.00 0.00 44 1019.0
20260904143136 88 115 0.0 3.0 0.00 0.00 0.00 44 1019.1
20260904142120 88 91 1.0 5.0 0.00 0.00 0.00 46 1019.2
20260904141126 89 98 1.0 4.0 0.00 0.00 0.00 47 1019.1
20260904140131 89 90 1.0 3.0 0.00 0.00 0.00 48 1019.2
20260904135134 88 91 2.0 4.0 0.00 0.00 0.00 46 1019.3
20260904134138 89 5 1.0 5.0 0.00 0.00 0.00 50 1019.3
20260904133124 89 74 1.0 4.0 0.00 0.00 0.00 45 1019.4
20260904132126 89 59 1.0 4.0 0.00 0.00 0.00 47 1019.4
20260904131130 89 44 1.0 4.0 0.00 0.00 0.00 46 1019.5
20260904130131 88 75 2.0 5.0 0.00 0.00 0.00 43 1019.5
20260904125155 88 86 1.0 4.0 0.00 0.00 0.00 45 1019.6
20260904124121 88 94 1.0 5.0 0.00 0.00 0.00 48 1019.7
20260904123126 88 69 2.0 6.0 0.00 0.00 0.00 45 1019.9
20260904122129 88 119 1.0 5.0 0.00 0.00 0.00 43 1019.9
20260904121131 88 74 3.0 4.0 0.00 0.00 0.00 44 1020.0
20260904120135 88 183 1.0 5.0 0.00 0.00 0.00 45 1020.1
20260904115135 88 76 1.0 4.0 0.00 0.00 0.00 46 1020.2
20260904114140 87 102 1.0 4.0 0.00 0.00 0.00 47 1020.2
20260904113145 87 101 1.0 4.0 0.00 0.00 0.00 44 1020.3
20260904112129 86 82 0.0 4.0 0.00 0.00 0.00 46 1020.3
20260904111132 86 50 2.0 4.0 0.00 0.00 0.00 45 1020.4
20260904110156 86 88 1.0 5.0 0.00 0.00 0.00 43 1020.4
20260904105138 86 49 0.0 3.0 0.00 0.00 0.00 42 1020.5
20260904104124 86 93 1.0 4.0 0.00 0.00 0.00 48 1020.6
20260904103132 86 71 1.0 4.0 0.00 0.00 0.00 45 1020.7
20260904102135 85 53 1.0 3.0 0.00 0.00 0.00 47 1020.8
20260904101137 85 49 1.0 4.0 0.00 0.00 0.00 48 1020.9
20260904100119 85 49 1.0 4.0 0.00 0.00 0.00 50 1021.1
20260904095124 84 63 1.0 3.0 0.00 0.00 0.00 49 1021.1
20260904094126 84 63 2.0 4.0 0.00 0.00 0.00 47 1021.2
20260904093150 84 64 1.0 3.0 0.00 0.00 0.00 52 1021.2
20260904092132 83 5 1.0 3.0 0.00 0.00 0.00 47 1021.3
20260904091139 82 5 1.0 4.0 0.00 0.00 0.00 50 1021.3
20260904090122 81 5 1.0 3.0 0.00 0.00 0.00 49 1021.4
20260904085125 80 5 0.0 4.0 0.00 0.00 0.00 49 1021.3
20260904084129 80 5 1.0 3.0 0.00 0.00 0.00 49 1021.3
20260904083136 79 5 1.0 3.0 0.00 0.00 0.00 52 1021.3
20260904082119 79 5 2.0 4.0 0.00 0.00 0.00 52 1021.3
20260904081123 78 5 1.0 4.0 0.00 0.00 0.00 52 1021.2
20260904080125 77 55 0.0 3.0 0.00 0.00 0.00 52 1021.1
20260904075147 77 55 2.0 4.0 0.00 0.00 0.00 54 1021.2
20260904074154 77 55 1.0 4.0 0.00 0.00 0.00 56 1021.2
20260904073135 76 55 1.0 4.0 0.00 0.00 0.00 58 1021.2
20260904072138 75 5 1.0 3.0 0.00 0.00 0.00 58 1021.2
20260904071121 74 5 1.0 5.0 0.00 0.00 0.00 59 1021.2
20260904070128 73 263 0.0 3.0 0.00 0.00 0.00 63 1021.1
20260904065130 73 263 1.0 2.0 0.00 0.00 0.00 66 1021.0
20260904064132 72 263 1.0 3.0 0.00 0.00 0.00 64 1020.9
20260904063134 72 253 0.0 2.0 0.00 0.00 0.00 62 1020.8
20260904062121 72 253 0.0 3.0 0.00 0.00 0.00 61 1020.7
20260904061125 72 290 2.0 4.0 0.00 0.00 0.00 64 1020.6
20260904060127 71 257 0.0 3.0 0.00 0.00 0.00 60 1020.6
20260904055131 71 30 0.0 5.0 0.00 0.00 0.00 63 1020.6
20260904054140 71 61 0.0 1.0 0.00 0.00 0.00 63 1020.6
20260904053124 71 61 1.0 3.0 0.00 0.00 0.00 61 1020.5
20260904052125 71 132 1.0 5.0 0.00 0.00 0.00 61 1020.4
20260904051148 70 86 0.0 6.0 0.00 0.00 0.00 62 1020.3
20260904050152 69 234 0.0 2.0 0.00 0.00 0.00 65 1020.2
20260904045157 68 236 0.0 5.0 0.00 0.00 0.00 70 1020.2
20260904044139 69 244 1.0 3.0 0.00 0.00 0.00 70 1020.1
20260904043122 71 355 1.0 3.0 0.00 0.00 0.00 64 1020.1
20260904042124 71 321 1.0 3.0 0.00 0.00 0.00 61 1020.1
20260904041132 70 241 1.0 3.0 0.00 0.00 0.00 62 1020.2
20260904040135 71 260 1.0 4.0 0.00 0.00 0.00 65 1020.2
20260904035140 69 283 2.0 9.0 0.00 0.00 0.00 63 1020.3